This demonstration page uses our WeatherBlox Daily Observations layout. Learn more.

Left ArrowRight Arrow

39.01783, -85.05884

Hourly Observations for February 5, 2016

Temp ( °F °C ) Dew Point ( °F °C ) Humidity (%) Winds ( mph kmh ) Pressure ( in mb ) Visibility ( mi km ) Precip ( " mm )
12:52 am 00:52 Clear 22 -5.6 16 -8.9 78 78 Calm 30.37 1028 10 16 0.00 0.00
1:52 am 01:52 Clear 20 -6.7 16 -8.9 85 85 WSW 3 6 30.37 1028 10 16 0.00 0.00
2:52 am 02:52 Clear 21 -6.1 17 -8.3 85 85 W 3 6 30.38 1029 10 16 0.00 0.00
3:52 am 03:52 Clear 21 -6.1 17 -8.3 85 85 Calm 30.38 1029 10 16 0.00 0.00
4:52 am 04:52 Clear 21 -6.1 17 -8.3 85 85 Calm 30.39 1029 10 16 0.00 0.00
5:52 am 05:52 Clear 19 -7.2 17 -8.3 92 92 SSW 3 6 30.39 1029 9 14 0.00 0.00
6:52 am 06:52 Clear 19 -7.2 16 -8.9 88 88 SSW 3 6 30.41 1030 10 16 0.00 0.00
7:52 am 07:52 Sunny 20 -6.7 17 -8.3 89 89 S 3 6 30.42 1030 10 16 0.00 0.00
8:52 am 08:52 Sunny 24 -4.4 20 -6.7 84 84 SSW 7 11 30.45 1031 10 16 0.00 0.00
9:52 am 09:52 Sunny 29 -1.7 21 -6.1 72 72 SSW 7 11 30.45 1031 10 16 0.00 0.00
10:52 am 10:52 Sunny 32 0 21 -6.1 64 64 S 7 11 30.45 1031 10 16 0.00 0.00
11:52 am 11:52 Mostly Sunny 36 2.2 19 -7.2 50 50 SSE 8 13 30.43 1031 10 16 0.00 0.00
12:52 pm 12:52 Partly Cloudy 40 4.4 19 -7.2 43 43 S 7 11 30.40 1029 10 16 0.00 0.00
2:52 pm 14:52 Partly Cloudy 41 5 18 -7.8 39 39 S 8 13 30.37 1028 10 16 0.00 0.00
3:52 pm 15:52 Partly Cloudy 42 5.6 19 -7.2 40 40 S 12 19 30.36 1028 10 16 0.00 0.00
4:52 pm 16:52 Cloudy 42 5.6 18 -7.8 38 38 S 8 13 30.36 1028 10 16 0.00 0.00
5:52 pm 17:52 Mostly Cloudy 39 3.9 18 -7.8 43 43 S 7 11 30.37 1028 10 16 0.00 0.00
6:52 pm 18:52 Mostly Cloudy 35 1.7 19 -7.2 52 52 S 5 7 30.37 1029 10 16 0.00 0.00
7:52 pm 19:52 Mostly Cloudy 33 0.6 19 -7.2 56 56 S 6 9 30.36 1028 10 16 0.00 0.00
8:52 pm 20:52 Partly Cloudy 33 0.6 18 -7.8 54 54 S 7 11 30.35 1028 10 16 0.00 0.00
9:52 pm 21:52 Partly Cloudy 32 0 19 -7.2 59 59 S 7 11 30.34 1027 10 16 0.00 0.00
10:52 pm 22:52 Partly Cloudy 32 0 24 -4.4 73 73 N 10 17 30.34 1027 10 16 0.00 0.00
11:52 pm 23:52 Partly Cloudy 29 -1.7 24 -4.4 82 82 NNW 5 7 30.35 1028 9 14 0.00 0.00

Powered by AerisWeather